Theta_e
297 297 297 297 297 297 296 296 296 296 296 296 296 296 296 295 295 295 295 295 295 294 294 295 294 295 295 295 295 295 295 296 296 297 297 298 298 299 299 300 300 300 300 300 300 300 300 300 299 299 299 298 298 297 297 296 296 295 295 295 295 295 295 295 295 295 295 295 295 295 295 295 295 295 294 294 294 294 294 294 294 294 294 294 294 294
297 297 296 296 296 296 296 296 296 296 296 295 295 295 295 295 295 294 294 294 294 294 295 295 295 295 295 295 295 296 296 296 297 297 298 298 299 299 300 300 300 300 300 300 300 300 300 299 299 299 298 298 297 297 296 296 295 295 295 295 295 295 295 295 295 295 295 295 295 295 295 295 295 295 295 295 294 294 294 294 294 294 294 294 294 294
296 296 296 296 296 296 296 296 296 295 295 295 295 295 295 294 294 294 294 294 294 294 295 295 295 295 295 295 296 296 296 297 297 298 298 298 299 299 300 300 300 300 300 300 300 300 299 299 299 298 298 297 297 297 296 296 295 295 295 295 295 295 295 295 295 295 295 295 295 295 295 295 295 295 295 295 295 295 295 294 294 294 294 294 294 294
296 296 296 296 296 296 296 296 296 295 295 295 295 295 294 294 294 294 294 294 294 295 295 295 295 295 296 296 296 296 297 297 297 298 298 299 299 299 300 300 300 300 300 299 299 299 299 299 298 298 298 297 297 296 296 296 295 295 295 295 295 295 295 295 295 295 295 295 295 295 295 295 295 295 295 295 295 295 295 295 295 294 294 294 294 294
296 296 296 296 296 296 296 295 295 295 295 295 295 294 294 294 294 294 294 294 294 295 295 295 296 296 296 296 296 297 297 298 298 298 298 299 299 299 299 299 299 299 299 299 299 299 299 298 298 298 297 297 296 296 296 295 295 295 295 295 295 295 295 295 295 295 295 295 295 295 295 295 295 295 295 295 295 295 295 295 295 295 294 294 294 294
296 296 296 296 295 295 295 295 295 295 295 294 294 294 294 294 294 294 294 294 295 295 295 296 296 296 296 297 297 297 298 298 298 298 298 299 299 299 299 299 299 299 299 299 299 299 298 298 298 297 297 297 296 296 296 295 295 295 295 295 295 295 295 295 295 295 295 295 295 295 295 295 294 294 294 294 295 295 295 295 295 295 294 294 294 294
296 296 296 295 295 295 295 295 295 295 294 294 294 294 294 294 294 294 294 294 295 295 296 296 296 297 297 297 297 297 298 298 298 298 298 298 299 299 299 299 299 299 298 298 298 298 298 298 298 297 297 297 296 296 296 295 295 295 295 295 295 295 295 295 295 295 295 295 295 295 295 294 294 294 294 294 294 294 294 294 294 294 294 294 294 294
296 296 296 295 295 295 295 295 295 294 294 294 294 294 294 294 294 294 294 294 295 295 296 296 297 297 297 298 298 298 298 298 298 298 298 298 298 298 298 298 298 298 298 298 298 298 298 298 297 297 297 296 296 296 296 295 295 295 295 295 295 295 295 295 295 295 295 295 295 295 295 294 294 294 294 294 294 294 294 294 294 294 294 294 294 294
296 295 295 295 295 295 295 295 294 294 294 294 294 294 294 294 294 294 294 295 295 296 296 297 297 298 298 298 298 298 298 298 298 298 298 298 298 298 298 298 298 298 298 298 298 298 298 297 297 297 297 296 296 296 296 295 295 295 295 295 295 295 295 295 295 295 295 295 295 295 295 294 294 294 294 294 294 294 294 294 294 294 294 294 294 294
295 295 295 295 295 294 294 294 294 294 294 294 294 294 294 294 294 294 295 295 295 296 297 297 297 298 298 298 298 298 298 298 298 298 298 298 298 298 298 298 298 298 298 297 297 297 297 297 297 297 297 296 296 296 296 296 295 295 295 295 295 295 295 295 295 295 295 295 295 294 294 294 294 294 294 294 294 294 294 294 294 294 294 294 293 293
295 295 295 294 294 294 294 294 294 294 294 294 294 294 294 294 295 295 295 295 296 296 297 297 297 298 298 298 299 298 298 298 298 298 298 297 297 297 297 297 297 297 297 297 297 297 297 297 296 296 296 296 296 296 296 296 295 295 295 295 295 295 295 295 295 295 295 295 294 294 294 294 294 294 294 294 293 293 293 293 293 293 293 293 293 293
294 294 294 294 294 294 294 294 294 294 294 294 294 294 295 295 295 295 296 296 296 297 297 297 297 297 298 298 298 299 298 298 298 297 297 297 297 297 297 297 297 297 297 297 297 297 296 296 296 296 296 296 296 296 296 296 295 295 295 295 295 295 295 295 295 294 294 294 294 294 294 294 293 293 293 293 293 293 293 293 293 293 293 293 293 293
294 294 294 294 294 294 294 294 294 294 294 294 294 295 295 296 296 296 296 297 296 297 298 298 298 298 298 298 298 298 298 298 298 297 297 297 297 297 297 297 296 296 296 296 296 296 296 296 296 296 296 296 296 296 296 296 295 295 295 295 295 295 295 294 294 294 294 294 294 294 293 293 293 293 293 293 293 292 292 292 292 292 292 292 292 292
294 294 294 294 294 294 294 294 294 294 295 295 295 296 296 296 297 297 297 297 297 297 298 298 298 298 298 298 298 298 298 297 297 297 297 297 297 297 296 296 296 296 296 296 296 296 296 296 296 296 296 296 296 296 296 295 295 295 295 295 295 295 294 294 294 294 294 294 293 293 293 293 292 292 292 292 292 292 292 292 292 292 292 292 292 292
294 294 294 294 294 294 294 294 295 295 295 296 296 296 296 297 298 298 297 297 297 297 298 298 298 298 298 298 298 298 297 297 297 297 297 296 296 296 296 296 296 296 296 296 296 295 295 296 296 296 296 296 296 295 295 295 295 295 295 295 295 294 294 294 294 294 293 293 293 293 292 292 292 292 292 292 291 291 291 291 291 291 291 291 291 291
294 294 294 294 294 294 294 295 295 295 296 296 296 297 297 298 298 298 298 297 297 297 297 297 297 297 298 298 298 298 297 296 296 296 296 296 296 296 296 295 295 295 295 295 295 295 295 295 295 296 296 296 295 295 295 295 295 295 295 294 294 294 294 294 293 293 293 292 292 292 292 291 291 291 291 291 291 291 291 291 291 291 291 291 291 291
294 294 294 294 294 294 294 295 295 296 296 296 297 298 298 299 298 298 297 297 297 297 297 297 297 297 297 298 298 298 297 296 296 296 296 296 296 296 296 295 295 295 295 295 295 295 295 295 295 295 295 295 295 295 295 295 295 294 294 294 294 294 293 293 293 292 292 292 292 291 291 291 291 291 291 290 290 290 290 290 290 290 290 290 290 290
294 294 294 294 294 294 294 295 295 296 296 297 298 299 299 299 299 298 297 297 297 297 297 297 297 297 296 296 297 298 298 296 296 295 295 295 295 295 295 295 295 295 295 295 295 295 295 295 295 295 295 295 295 295 294 294 294 294 294 294 293 293 293 292 292 292 291 291 291 291 291 290 290 290 290 290 290 290 290 290 290 290 290 290 290 290
293 294 294 294 294 294 294 295 296 297 297 298 299 300 300 299 299 298 298 297 297 297 297 297 297 297 296 295 296 297 297 296 295 295 294 294 294 294 295 295 295 295 295 295 295 295 295 295 295 295 295 294 294 294 294 294 294 294 294 293 293 292 292 292 291 291 291 291 291 290 290 290 290 290 290 290 290 290 289 289 289 289 289 289 289 289
293 293 294 294 294 294 294 296 297 298 299 299 300 300 300 300 299 298 298 298 297 297 297 297 297 296 296 295 295 296 296 295 294 294 294 294 294 294 295 295 295 295 295 295 295 295 294 294 294 294 294 294 294 294 294 294 294 293 293 293 292 292 291 291 291 291 291 290 290 290 290 290 290 290 290 289 289 289 289 289 289 289 288 288 288 288
293 293 294 294 294 294 295 296 298 299 299 300 300 300 300 299 299 298 298 298 297 297 297 296 296 295 295 294 294 295 295 294 294 294 294 294 294 294 294 295 295 295 295 294 294 294 294 294 294 294 294 294 294 294 294 293 293 293 292 292 292 291 291 291 291 290 290 290 290 290 290 290 289 289 289 289 289 289 288 288 288 288 288 288 288 288
293 293 293 294 294 294 295 296 298 299 300 300 299 299 299 299 299 298 298 297 297 296 296 296 295 295 295 294 294 294 295 295 294 294 294 294 294 294 294 295 295 295 294 294 294 294 294 294 294 294 294 294 293 293 293 292 292 292 291 291 291 291 291 290 290 290 290 290 290 289 289 289 289 289 289 288 288 288 288 288 288 287 287 287 287 287
293 293 293 294 294 295 296 296 298 299 300 299 299 299 298 298 298 298 298 297 297 296 296 296 295 295 295 295 295 295 295 295 295 295 294 294 294 294 294 294 294 294 294 294 294 294 294 294 294 294 294 293 293 292 292 291 291 291 291 291 290 290 290 290 290 290 289 289 289 289 289 289 288 288 288 288 288 288 287 287 287 287 287 287 287 287
293 293 293 294 295 296 296 297 298 299 299 299 298 298 298 298 298 298 297 297 297 297 297 296 296 296 296 296 296 296 296 296 295 295 295 294 294 294 294 294 294 294 294 294 294 294 294 294 294 293 293 292 291 291 291 291 290 290 290 290 290 290 290 289 289 289 289 289 288 288 288 288 288 288 288 287 287 287 287 287 287 287 287 287 287 287
293 293 293 294 295 296 297 298 298 298 298 298 298 298 298 298 298 298 298 297 297 297 297 297 297 296 296 296 296 296 296 296 295 295 294 294 294 293 293 293 293 293 294 294 293 293 293 293 292 292 291 291 291 290 290 290 290 290 290 289 289 289 289 289 289 288 288 288 288 288 287 287 287 287 287 287 287 286 286 286 286 286 286 286 286 287
293 293 293 294 295 296 297 297 297 297 297 297 297 298 298 298 298 298 298 297 297 297 297 297 296 296 296 296 296 295 295 295 295 295 294 294 293 293 293 293 293 293 293 293 292 292 292 291 291 291 290 290 290 290 290 290 290 289 289 289 289 289 289 288 288 288 288 288 287 287 287 287 287 287 286 286 286 286 286 286 286 286 286 286 286 287
293 293 294 295 296 296 297 297 297 297 297 297 297 298 298 298 298 298 297 297 297 297 297 296 296 296 296 295 295 295 295 295 295 295 294 294 293 293 293 293 293 293 292 292 291 291 291 290 290 290 290 290 290 289 289 289 289 289 289 289 289 288 288 288 288 288 287 287 287 287 287 286 286 286 286 286 286 286 286 286 286 286 286 286 286 287
293 293 294 295 296 296 297 296 296 297 297 297 297 298 298 298 298 298 298 298 297 297 297 296 296 296 295 295 294 294 294 294 294 294 294 294 293 293 293 292 292 292 291 291 291 290 290 290 290 290 289 289 289 289 289 289 289 289 288 288 288 288 288 288 287 287 287 287 287 286 286 286 286 286 286 286 286 286 286 286 286 286 286 286 287 287
293 293 294 295 296 296 296 296 296 297 297 297 298 298 298 298 298 298 297 297 297 297 296 296 296 295 295 294 294 294 294 294 294 294 294 293 293 293 292 292 291 291 291 290 290 290 290 289 289 289 289 289 289 289 289 289 288 288 288 288 288 288 287 287 287 287 287 287 286 286 286 286 286 286 286 286 286 286 286 286 286 286 286 287 287 287
293 293 294 295 296 296 296 296 296 297 297 298 298 298 298 299 298 297 297 297 296 296 296 296 295 295 294 294 293 293 293 293 294 294 293 293 292 292 291 291 290 290 290 289 289 289 289 289 289 289 289 289 289 289 289 288 288 288 288 288 288 288 288 287 287 287 287 287 287 286 286 286 286 286 286 286 286 286 286 286 286 286 287 287 287 287
293 293 294 295 296 296 297 297 297 297 298 298 298 298 298 298 298 297 297 296 296 296 296 296 295 295 294 294 293 293 292 292 293 293 293 292 291 291 290 290 290 289 289 289 289 288 288 289 289 289 289 289 288 288 288 288 288 288 288 288 288 288 288 288 287 287 287 287 287 287 287 287 287 287 287 287 287 287 287 287 287 287 287 287 287 287
293 294 295 295 296 297 297 297 298 298 298 298 298 298 298 298 298 297 297 297 296 296 296 295 295 295 294 294 293 293 292 292 292 292 292 291 291 290 290 290 289 289 289 289 289 288 288 288 288 288 288 288 288 288 288 288 288 288 288 288 288 288 288 288 288 288 288 288 288 287 287 287 287 287 287 287 287 287 287 287 287 287 287 287 287 287
293 294 294 295 296 296 297 298 298 298 298 298 298 298 298 298 297 297 297 297 297 296 296 295 295 294 294 293 293 293 292 292 291 292 291 291 290 290 290 289 289 289 288 288 288 288 288 288 288 288 288 288 287 287 287 287 288 288 287 287 287 287 288 288 288 288 288 288 288 288 287 287 287 287 287 287 287 287 287 287 287 287 287 287 287 287
293 293 294 295 295 296 297 298 298 298 298 298 297 297 297 297 297 297 297 297 297 296 295 295 294 294 293 293 292 292 291 291 291 291 291 290 290 290 289 289 289 288 288 288 288 288 288 287 287 287 287 287 287 287 287 287 287 287 287 287 287 287 287 287 287 287 287 287 287 287 287 287 287 287 287 287 287 287 287 287 287 287 287 287 287 286
292 293 294 294 295 296 297 298 298 298 298 297 297 296 296 296 297 297 297 297 296 296 295 295 294 293 293 292 292 291 291 291 291 291 290 290 290 289 289 289 288 288 288 288 287 287 287 287 287 287 287 287 287 287 287 287 287 287 287 287 287 287 287 287 287 287 287 287 287 287 287 287 287 287 287 287 287 287 287 287 287 287 287 286 286 286
293 293 294 295 296 297 298 298 298 298 298 297 297 296 296 296 296 296 296 296 295 295 294 294 294 293 293 292 292 291 291 290 290 290 290 290 289 289 289 288 288 288 288 287 287 287 287 287 286 287 286 286 286 287 287 287 287 287 287 287 287 287 287 287 287 287 287 287 287 287 287 287 287 287 287 287 287 287 287 287 287 287 287 287 286 286
293 294 295 296 297 297 298 298 298 298 297 297 297 296 296 296 296 295 295 295 295 294 294 293 293 293 292 292 292 291 291 290 290 290 290 289 289 289 289 288 288 288 287 287 287 287 286 286 286 286 286 286 286 286 286 287 287 286 286 287 287 287 287 287 287 287 287 287 287 287 287 287 287 287 287 287 287 287 287 287 287 287 287 287 286 286
295 295 296 297 298 298 298 298 298 298 297 297 296 296 296 296 295 295 294 294 294 293 293 293 292 292 292 291 291 291 290 290 290 290 289 289 289 289 288 288 288 287 287 287 287 286 286 286 286 286 286 286 286 286 286 286 286 286 286 286 286 286 287 287 287 287 287 287 287 287 287 287 287 286 287 287 287 287 287 287 287 287 287 287 287 286
296 297 297 298 298 299 299 299 298 298 297 297 296 296 296 295 295 294 293 293 293 293 292 292 292 291 291 291 291 290 290 290 290 290 289 289 289 288 288 288 287 287 287 287 287 286 286 286 286 286 286 286 286 286 286 286 286 286 286 286 286 287 287 287 286 286 286 286 286 286 286 286 286 286 286 286 287 287 287 287 287 287 287 286 286 286
297 297 298 298 299 299 299 298 298 297 297 296 296 296 295 294 294 293 293 292 292 292 292 291 291 291 291 290 290 290 290 290 289 289 289 289 288 288 288 288 287 287 287 287 286 286 286 286 286 285 286 286 286 286 286 286 286 286 286 286 286 287 287 287 286 286 286 286 286 286 286 286 286 286 286 286 286 287 287 287 287 286 286 286 286 286
297 298 298 298 299 298 298 297 297 297 296 296 295 294 294 293 293 292 292 292 291 291 291 291 290 290 290 290 290 290 289 289 289 289 289 288 288 288 288 287 287 287 287 286 286 286 286 286 286 285 286 285 285 286 286 286 286 286 286 286 286 286 286 286 287 286 286 286 286 286 286 286 286 286 286 286 286 286 286 286 286 286 286 286 286 286
298 298 298 298 298 298 297 296 296 295 295 294 294 293 293 292 292 292 291 291 291 290 290 290 290 290 290 289 289 289 289 289 289 288 288 288 288 287 287 287 287 287 286 286 286 286 286 286 286 286 286 286 285 285 286 286 286 286 286 286 286 286 286 286 286 286 286 286 285 285 285 285 285 285 285 286 286 286 286 286 286 286 286 286 286 285
298 298 298 297 297 296 296 295 295 294 294 293 293 292 292 291 291 291 291 290 290 290 290 290 289 289 289 289 289 289 289 289 288 288 288 288 287 287 287 287 287 286 286 286 286 286 286 286 286 286 286 286 286 286 286 286 286 286 286 286 286 285 285 286 286 286 285 285 285 285 285 285 285 285 285 285 286 286 286 286 286 286 285 285 285 285
297 297 297 296 296 295 294 294 293 293 292 292 291 291 291 291 290 290 290 290 290 290 290 289 289 289 289 289 289 289 289 288 288 288 288 288 287 287 287 287 286 286 286 286 286 286 286 286 286 286 286 286 286 286 286 286 286 286 286 286 286 285 285 285 285 285 285 285 285 285 285 285 285 285 285 285 285 285 285 285 285 285 285 285 284 284
296 296 295 294 294 293 293 292 292 292 291 291 291 290 290 290 290 290 290 290 290 290 289 289 289 289 289 289 289 288 288 288 288 288 288 288 287 287 287 287 286 286 286 286 286 286 286 286 286 286 285 285 285 285 285 285 286 286 286 286 286 285 285 285 285 285 285 285 285 285 285 284 284 284 284 285 285 285 285 285 285 284 284 284 284 284
295 294 294 293 292 292 291 291 291 291 290 290 290 290 290 290 290 290 290 290 290 289 289 289 289 289 289 289 288 288 288 288 288 288 288 288 288 287 287 287 287 286 286 286 286 286 286 286 286 286 285 285 285 285 285 285 285 285 286 286 286 285 285 285 285 285 285 285 285 285 284 284 284 284 284 284 284 284 284 284 284 284 284 284 284 284
293 293 292 292 291 291 291 291 290 290 290 290 290 290 290 290 290 290 290 290 290 289 289 289 289 289 288 288 288 288 288 287 287 288 288 288 288 288 287 287 287 287 287 286 286 286 286 286 286 285 285 285 284 285 285 285 285 285 285 285 285 285 285 285 285 285 285 285 285 284 284 284 284 284 284 284 284 284 284 284 284 284 284 284 284 283
292 291 291 291 291 291 290 290 290 290 290 290 290 290 290 290 290 290 290 290 290 289 289 289 288 288 288 288 288 288 288 287 287 287 287 288 288 287 287 287 287 287 286 286 286 286 286 286 285 285 285 285 285 285 285 285 285 285 285 285 285 285 285 285 285 285 285 285 284 284 284 284 284 283 283 283 284 284 284 284 284 283 283 283 283 283
291 291 291 291 291 290 290 290 290 290 290 290 290 290 290 290 290 290 290 290 290 289 289 289 288 288 288 288 288 288 287 287 287 287 287 287 287 287 287 287 287 286 286 286 286 286 286 286 285 285 285 285 285 285 285 285 285 285 285 285 285 285 285 285 285 285 284 284 284 284 284 284 283 283 283 283 283 283 284 283 283 283 283 283 283 283
291 291 291 291 291 291 291 291 291 291 291 290 290 290 290 290 290 290 290 290 290 289 289 288 288 288 288 288 287 287 287 287 287 287 287 287 287 287 287 286 286 286 286 286 286 285 285 285 285 285 285 285 285 285 285 285 285 285 285 285 285 285 285 285 284 284 284 284 284 284 283 283 283 283 283 282 282 282 283 283 283 283 283 283 283 283
291 291 291 291 291 291 291 291 291 291 291 291 291 290 290 290 290 290 290 290 289 289 288 288 288 288 288 287 287 287 287 287 287 287 287 287 287 287 286 286 286 286 285 285 285 284 284 284 284 285 285 285 286 286 285 285 285 285 285 285 284 284 284 284 284 284 284 283 283 283 283 283 282 282 282 282 282 282 282 282 283 283 283 283 283 283
Wind_Speed
20 20 20 20 20 20 21 21 21 21 21 20 20 20 20 19 19 20 19 19 19 19 19 19 19 18 18 18 18 18 18 17 17 17 17 17 17 17 17 18 17 18 18 18 18 19 19 19 19 20 20 20 20 19 19 19 18 18 18 17 17 17 17 17 17 17 17 17 17 17 17 17 17 16 16 16 16 16 16 16 16 16 15 15 14 14
21 20 20 21 21 21 21 21 21 21 21 20 20 20 20 20 20 20 20 20 20 19 19 19 19 18 18 18 18 18 18 18 18 18 18 18 18 18 18 18 18 18 18 18 19 19 19 20 20 20 20 20 20 19 19 19 18 18 18 18 18 17 17 17 17 17 18 18 18 18 17 17 17 17 16 16 16 16 16 16 16 16 16 16 15 15
21 21 21 21 21 21 22 21 21 21 21 21 21 21 21 21 21 21 20 20 20 19 19 19 18 18 18 18 18 18 18 18 18 18 18 18 18 18 19 19 19 19 19 19 19 20 20 20 20 20 20 20 20 20 19 19 19 18 18 18 18 18 18 18 18 18 18 18 18 18 18 17 17 17 17 17 17 17 17 17 17 17 17 16 16 16
22 22 22 22 22 22 22 22 21 22 22 22 21 21 21 21 22 21 21 20 20 20 19 19 18 18 18 18 18 18 18 18 18 18 18 18 19 19 19 19 19 19 19 20 20 20 20 20 20 20 20 20 20 20 20 19 19 19 19 19 19 19 18 18 18 18 18 18 18 18 18 18 18 18 18 17 17 17 17 17 17 17 17 17 17 16
22 23 23 22 22 22 22 22 22 22 22 22 22 22 22 22 22 22 21 20 20 19 19 18 18 18 18 18 18 18 18 19 19 19 19 19 19 20 20 20 20 20 20 20 20 21 21 21 21 21 20 20 20 20 20 20 20 20 20 20 19 19 19 19 19 19 19 19 19 19 19 19 19 18 18 18 18 18 18 18 18 18 17 17 17 17
23 23 23 23 22 23 23 23 22 22 23 23 23 23 22 22 22 22 21 20 20 19 19 18 18 18 18 18 19 19 19 19 19 19 19 19 20 20 20 21 21 21 21 21 21 21 21 21 21 21 21 21 21 20 21 20 20 20 20 20 20 20 20 20 20 20 20 20 20 20 20 20 19 19 19 19 19 19 19 19 19 19 18 18 18 18
24 24 24 23 23 23 24 23 23 23 23 23 23 23 23 22 22 22 21 20 20 19 19 18 18 18 18 19 19 19 19 19 20 20 20 20 20 21 21 21 21 21 21 21 21 21 21 21 21 21 21 21 21 21 21 21 21 21 21 21 21 21 21 21 21 21 21 21 21 21 21 20 20 20 20 20 20 20 20 20 20 20 19 19 19 19
25 25 24 24 24 24 24 24 24 24 24 24 24 23 23 23 22 22 21 20 20 19 19 19 19 19 19 19 19 19 20 20 20 20 21 21 21 21 22 22 22 22 22 22 22 22 22 22 22 22 21 21 21 21 21 22 22 22 22 22 22 22 22 22 22 22 22 22 22 22 22 22 22 22 22 22 22 22 22 21 21 21 21 20 20 20
26 25 25 25 25 25 25 25 25 25 24 24 24 23 23 23 23 22 21 21 20 19 19 19 19 19 20 20 20 20 20 20 21 21 21 22 22 22 22 22 22 22 22 22 23 22 22 22 22 22 22 22 22 22 22 22 22 22 22 22 22 22 23 23 23 23 23 23 23 23 23 23 23 23 23 23 23 23 23 23 23 22 22 22 22 21
26 26 25 25 26 26 25 26 26 25 24 24 24 23 23 23 23 22 21 21 20 20 20 20 20 20 20 21 21 21 21 21 21 22 22 22 23 23 23 23 23 23 23 23 23 23 23 23 23 22 22 22 22 23 23 23 23 23 23 23 23 23 24 24 24 24 24 24 24 24 24 24 24 24 24 24 24 24 24 24 24 24 24 23 23 23
27 26 26 26 26 26 26 27 26 25 24 24 24 24 24 23 23 22 22 21 20 20 20 20 20 20 21 22 22 22 22 22 22 23 23 23 23 23 23 23 23 24 24 24 24 24 23 23 23 23 23 23 23 23 23 23 23 23 23 24 24 24 24 25 25 25 25 25 25 25 25 25 25 25 25 25 25 25 25 25 25 25 25 25 25 24
27 27 27 27 27 27 27 27 27 25 24 25 25 25 25 24 23 22 21 21 21 21 21 21 21 21 22 22 23 23 23 23 23 23 23 23 24 24 24 24 24 24 24 24 24 24 24 24 24 24 24 24 24 23 23 24 24 24 24 24 25 25 25 26 26 26 26 26 26 26 26 26 26 26 26 26 26 26 26 26 26 26 26 26 26 26
28 28 28 28 28 27 27 28 27 26 26 26 26 26 25 24 23 22 21 21 21 21 21 21 22 22 23 23 24 24 24 24 24 24 24 24 24 24 24 24 24 25 25 25 25 25 24 24 24 24 24 24 24 24 24 24 24 24 25 25 25 26 26 27 27 27 27 27 27 26 26 26 26 26 27 27 27 27 27 27 27 27 27 27 27 27
29 29 29 29 29 28 28 28 28 27 27 26 26 25 25 24 23 21 21 21 21 22 22 22 22 23 24 24 24 25 25 24 25 25 25 25 25 25 25 25 25 25 25 25 25 25 25 25 25 25 24 24 24 24 25 25 25 25 25 26 26 27 27 27 28 28 28 27 27 27 26 26 27 27 27 27 27 27 27 27 27 27 27 27 28 28
30 29 29 29 29 29 29 29 28 28 27 26 25 25 25 24 22 21 21 21 22 22 22 22 23 24 25 25 25 25 25 25 25 25 25 26 26 26 25 25 26 26 26 26 26 25 25 25 25 25 25 25 25 25 25 25 26 26 26 26 27 27 27 28 28 28 28 28 27 27 27 27 27 27 27 27 27 27 27 27 27 28 28 28 28 28
30 30 30 30 30 29 29 29 28 28 27 26 26 25 25 24 22 21 21 22 23 23 23 23 24 25 26 27 26 26 26 25 25 25 25 27 27 28 26 26 26 26 26 26 26 25 25 25 25 25 25 25 25 25 26 26 26 26 26 27 27 27 28 28 28 28 28 27 27 27 27 27 27 27 27 27 27 27 27 27 27 28 28 28 28 29
30 30 30 30 30 30 29 29 28 28 27 26 26 25 24 23 22 21 22 23 24 24 24 24 25 25 26 28 28 27 26 25 25 25 25 27 28 29 27 26 26 26 27 26 26 26 25 25 25 26 26 26 26 26 26 26 26 26 27 27 27 27 28 28 28 28 27 27 27 26 26 26 26 26 26 26 26 26 27 27 27 28 28 28 28 29
31 30 30 30 30 30 30 29 29 28 27 27 26 25 23 23 23 22 23 24 24 25 25 25 26 26 25 26 28 29 27 25 25 25 25 26 28 29 28 27 26 26 26 26 26 26 26 25 26 26 26 26 26 26 26 26 26 26 27 27 27 27 27 27 27 27 26 26 26 25 25 25 25 25 25 25 25 26 26 27 27 27 28 28 28 29
31 30 30 30 30 29 30 30 29 28 27 27 26 24 24 23 23 23 24 25 25 25 26 26 27 27 27 26 28 30 28 26 25 25 25 25 27 28 29 27 26 26 26 26 26 26 26 26 26 26 26 26 26 26 26 26 26 26 27 27 27 27 27 27 26 26 25 25 24 24 24 24 24 24 24 25 25 25 26 26 27 27 28 28 29 29
31 30 30 30 29 29 30 30 29 28 27 27 25 24 24 24 24 24 25 25 26 26 27 27 28 28 28 28 29 30 29 27 25 25 25 25 26 28 29 28 27 26 26 26 26 26 26 26 26 26 26 26 25 25 25 26 26 26 26 27 26 26 26 25 25 24 24 23 23 23 23 23 23 23 24 24 24 25 25 26 27 27 28 29 29 30
31 31 30 30 29 30 30 30 29 28 27 26 25 25 24 24 24 25 25 26 26 27 27 28 28 28 28 28 29 29 28 26 24 24 25 25 26 27 28 28 27 26 26 26 26 26 26 26 26 26 26 25 25 25 25 25 26 26 26 25 25 25 24 23 23 23 22 22 22 22 22 22 22 23 23 23 24 25 25 26 27 27 28 29 30 31
31 31 31 30 30 30 30 30 29 28 27 26 26 25 25 25 25 26 26 26 26 27 27 27 27 27 26 26 27 28 28 26 25 24 25 25 25 26 27 27 27 26 25 25 26 26 26 25 25 25 25 25 25 24 24 25 24 24 24 23 23 23 22 22 22 22 21 21 21 21 21 21 22 22 23 24 24 25 25 26 27 28 29 29 30 31
31 31 31 31 31 31 30 30 30 29 27 27 26 26 26 26 26 26 26 25 25 25 25 25 25 25 25 26 26 27 27 26 25 24 24 24 24 24 26 27 26 25 25 24 24 25 25 25 25 25 24 24 23 23 23 23 23 22 22 22 21 21 21 21 21 20 20 20 20 20 21 21 22 23 24 24 25 25 26 26 27 28 29 30 31 31
31 31 32 32 31 31 30 30 29 28 27 27 27 26 26 26 26 26 25 25 25 26 26 26 25 25 25 25 26 26 27 26 25 24 23 24 23 23 25 26 25 24 24 23 23 24 24 24 24 24 23 22 21 21 21 21 21 20 20 20 20 20 20 19 19 19 18 19 19 20 21 22 23 24 24 25 25 25 26 27 27 28 29 30 31 32
31 32 32 32 31 31 30 30 29 28 27 27 27 27 27 26 26 26 26 26 26 26 26 25 24 24 25 25 25 26 27 26 25 24 23 24 24 23 24 25 24 23 23 23 23 23 23 23 23 23 22 20 19 19 19 19 19 19 19 19 19 19 18 18 17 17 18 19 20 21 22 23 23 24 24 24 24 25 26 26 27 28 29 30 31 32
32 32 32 31 31 30 30 29 29 28 28 28 27 27 27 27 26 26 26 26 26 26 25 24 24 24 24 24 25 25 26 26 25 24 23 23 23 23 23 24 23 22 22 22 22 22 22 22 22 21 20 19 18 18 18 18 18 18 18 18 17 17 17 17 17 18 19 20 21 21 22 22 23 23 23 23 24 24 25 26 26 27 28 30 31 32
32 32 31 31 31 30 30 29 29 29 28 28 28 27 27 27 26 26 26 26 26 26 24 23 23 23 23 23 23 24 24 24 24 23 22 21 21 22 21 22 21 21 21 21 21 21 21 21 20 19 19 19 18 18 18 17 17 17 16 16 16 16 16 17 18 19 19 20 21 21 21 21 22 22 22 22 23 23 24 25 25 26 28 29 31 32
32 32 32 31 31 30 30 30 30 29 29 28 28 28 27 27 26 26 26 27 26 24 23 23 22 22 21 21 21 21 21 22 23 22 21 20 20 20 20 20 20 21 21 21 21 21 21 21 20 19 18 18 18 18 17 16 16 15 15 15 15 16 16 17 18 19 19 19 20 20 20 20 20 21 21 21 21 22 23 23 25 26 27 29 30 31
33 32 32 31 31 31 30 30 30 29 29 28 28 28 28 27 26 25 25 25 24 23 22 22 22 21 20 19 19 19 20 21 22 22 20 19 19 19 19 19 20 20 20 20 21 21 20 20 19 18 18 18 18 17 16 15 15 15 15 15 16 16 16 17 17 17 17 17 18 18 18 18 19 19 19 20 20 21 22 23 24 25 27 28 29 30
33 32 32 32 31 31 30 30 30 29 29 28 28 28 27 27 25 24 24 24 23 22 22 21 21 21 20 19 17 17 18 20 21 21 19 17 17 18 18 19 19 19 19 18 18 17 17 17 17 18 18 18 18 17 17 16 16 15 15 15 15 14 14 14 14 14 15 15 15 16 16 16 17 18 18 19 20 21 21 22 23 25 26 28 29 30
33 32 32 31 31 31 30 30 29 28 28 27 27 27 27 26 24 23 23 23 22 22 21 21 21 20 20 19 16 15 15 17 19 20 18 15 15 17 17 17 17 18 18 16 15 13 13 14 16 17 18 19 19 19 19 18 17 16 15 14 13 12 11 11 12 12 13 13 13 14 15 15 16 17 18 19 20 21 21 22 23 25 26 27 28 29
32 32 32 31 31 30 29 29 28 27 27 26 26 27 26 25 24 23 23 22 22 21 21 21 21 20 20 19 18 16 14 15 18 19 17 15 14 16 16 16 16 16 17 17 16 14 13 14 15 17 19 19 19 20 20 19 18 17 15 14 13 12 11 11 11 12 12 12 13 14 15 16 17 17 18 19 20 21 21 22 23 24 26 27 28 28
32 32 31 30 30 29 29 28 27 26 26 25 25 25 26 25 24 23 22 22 22 21 21 21 20 20 20 19 19 18 16 16 18 20 18 16 15 16 16 16 16 16 17 18 18 18 17 17 18 19 20 20 19 19 19 19 18 16 15 15 14 14 14 14 14 15 15 15 15 15 16 17 17 18 19 20 20 21 21 22 23 24 25 26 26 27
32 32 31 30 30 29 29 28 27 26 26 25 25 25 25 25 24 23 22 22 22 21 21 20 20 19 19 18 18 18 17 18 19 20 18 17 17 17 17 17 17 17 17 17 18 19 19 19 19 19 19 19 19 18 18 18 17 16 15 15 15 15 16 16 17 17 18 18 18 18 18 19 19 19 20 20 21 21 21 22 22 23 24 24 25 26
32 32 31 31 30 29 29 28 28 27 27 26 25 25 24 24 24 23 23 22 22 21 21 20 20 20 19 19 19 19 18 18 19 20 18 17 17 17 18 18 18 18 17 17 17 18 17 18 18 17 17 18 18 18 18 17 16 16 16 16 16 16 17 17 18 18 19 19 20 20 20 20 21 21 21 21 21 21 22 22 22 22 23 23 24 24
32 32 32 31 31 30 30 29 29 28 28 27 26 26 25 24 24 23 23 22 21 21 20 20 19 19 20 20 20 20 19 19 19 20 19 18 18 18 18 19 19 19 18 18 18 17 17 17 17 17 17 17 18 18 17 16 16 16 17 17 18 18 18 19 19 20 20 21 21 21 21 21 22 22 22 22 22 22 22 22 22 22 22 22 22 23
31 32 32 32 31 31 31 30 30 29 29 28 27 27 26 25 24 23 23 22 22 21 20 20 19 19 19 19 20 21 21 20 21 21 20 19 19 18 18 19 19 19 18 18 17 17 17 17 17 17 16 16 16 15 15 15 15 16 17 18 19 20 20 21 21 21 22 22 22 22 22 22 22 23 23 23 23 23 23 23 23 23 22 22 22 22
31 32 32 32 32 31 31 30 30 30 29 28 28 27 26 25 24 23 23 22 22 21 21 20 20 20 19 19 20 20 21 21 22 21 21 21 20 20 20 19 20 20 19 19 18 18 18 17 17 16 16 16 15 15 15 15 16 17 18 18 19 20 21 22 22 22 22 23 23 23 23 23 23 23 23 23 24 24 24 24 23 23 23 23 22 22
31 31 32 32 31 31 31 30 30 29 29 28 27 25 24 23 23 22 22 22 21 21 21 21 21 21 21 21 21 21 22 22 22 22 22 22 21 21 21 20 20 20 20 19 18 18 17 17 17 17 17 17 17 18 18 18 18 19 20 21 21 22 22 21 21 21 22 22 23 24 23 23 23 23 23 24 24 24 24 24 24 23 23 23 23 23
30 30 30 31 30 30 30 29 29 28 26 25 24 23 22 22 22 22 22 21 21 21 21 21 21 21 22 22 22 22 22 23 22 22 22 22 22 22 21 21 20 20 19 18 17 16 16 17 18 19 20 20 20 21 21 22 21 21 22 22 23 23 22 21 21 21 22 22 22 22 23 23 23 23 23 24 24 24 25 25 24 24 23 23 23 24
29 29 29 30 30 30 29 28 27 25 23 22 21 21 21 22 22 22 21 21 21 21 21 21 21 21 21 21 22 22 22 22 22 22 21 21 21 21 21 20 20 19 18 16 15 15 16 17 19 21 21 22 22 23 23 23 23 22 22 24 24 24 23 23 22 22 21 21 21 22 22 23 24 24 24 24 25 25 25 25 24 24 23 23 23 23
28 28 29 29 29 29 28 26 24 22 21 20 21 21 22 22 22 21 21 21 21 21 21 21 21 21 21 21 21 21 21 21 21 20 20 20 20 20 20 20 19 18 16 16 16 17 18 19 21 22 23 23 23 24 24 24 23 22 23 24 24 24 24 23 22 21 20 20 21 21 22 23 24 25 25 25 26 25 25 25 24 24 23 23 23 23
28 28 29 29 28 27 25 23 21 21 21 21 21 22 22 22 22 21 20 20 20 20 20 20 20 20 20 20 20 21 21 21 20 20 20 20 20 20 20 19 18 17 16 16 17 19 21 22 23 23 24 23 24 24 25 25 24 23 23 22 22 22 23 22 21 20 19 20 20 21 22 23 24 25 25 26 26 26 25 25 24 24 23 23 23 23
28 28 27 27 25 23 21 21 21 21 22 22 22 22 22 22 21 20 20 19 19 19 19 20 20 20 20 20 21 21 21 21 20 20 20 20 20 20 20 19 19 19 18 19 20 22 23 24 24 24 23 23 24 24 25 25 24 24 23 22 21 21 21 21 21 21 20 21 21 22 22 23 24 25 25 26 26 26 25 25 24 24 23 23 23 23
27 26 25 24 22 21 20 21 22 22 22 22 22 22 21 21 20 19 19 19 19 19 19 19 19 20 20 21 21 21 21 21 21 20 20 20 20 20 20 20 20 21 22 23 24 24 24 25 25 24 23 23 23 24 24 24 24 24 23 22 21 21 21 21 21 21 21 21 22 22 22 23 23 24 25 25 25 25 25 24 24 24 24 24 23 23
25 24 23 22 21 21 21 22 22 22 22 21 21 21 20 20 19 18 18 18 18 18 19 19 19 20 21 21 21 20 20 20 20 20 19 19 19 20 20 21 21 22 23 24 25 25 24 24 23 23 22 23 23 24 24 24 24 24 23 22 22 22 22 21 21 21 21 21 22 22 22 23 23 24 24 25 25 24 24 24 24 25 24 24 24 24
23 22 21 21 21 21 21 21 21 21 21 21 21 20 20 19 18 18 18 17 18 18 19 19 19 20 20 20 19 19 18 18 19 19 18 18 17 18 19 20 21 22 23 23 23 23 23 23 22 22 22 22 23 24 24 24 24 24 24 23 23 22 22 22 21 21 21 21 22 22 22 23 23 24 25 25 25 25 25 25 25 24 24 24 24 24
22 21 21 21 22 22 22 21 21 21 20 20 20 19 19 18 18 17 17 17 18 18 19 19 20 20 20 19 19 19 18 18 18 19 18 18 16 16 16 17 19 20 21 21 22 22 22 22 22 22 22 23 23 24 25 25 25 25 24 24 23 23 22 22 21 21 21 21 22 22 23 23 24 24 25 25 26 26 26 25 25 24 24 24 24 24
22 21 22 22 22 22 22 21 21 20 20 19 19 19 19 18 17 17 17 18 18 19 20 20 20 20 19 19 19 19 19 19 19 19 19 18 16 15 14 15 16 17 18 19 20 21 22 23 23 24 24 24 24 25 26 26 26 25 24 24 23 22 22 21 21 21 21 21 22 23 24 24 24 24 24 24 25 26 26 26 25 25 25 25 25 25
22 22 22 22 22 21 21 21 20 20 20 19 19 19 19 18 18 18 18 19 19 20 20 20 20 19 19 19 19 19 20 20 20 20 19 17 16 15 14 14 15 16 17 18 20 21 22 23 24 25 26 25 25 25 25 25 25 24 23 22 22 21 21 20 20 20 21 22 23 24 25 25 24 23 23 23 24 25 26 27 26 26 25 25 25 25
21 21 21 20 20 20 20 20 19 19 19 19 19 19 19 19 19 19 20 20 21 21 20 20 19 19 20 19 19 20 20 20 20 19 19 17 15 15 14 15 15 16 17 17 18 19 19 19 21 22 24 25 24 22 21 20 20 20 20 20 20 19 19 19 20 21 22 23 24 24 25 24 23 22 21 22 23 24 27 28 27 27 26 26 26 26
Wind_Direction
231 232 233 233 233 232 234 237 240 242 243 244 245 246 247 247 248 250 251 252 253 255 256 257 258 258 258 258 258 258 259 260 261 262 264 267 270 273 276 279 281 283 285 287 288 290 291 292 292 293 293 293 292 292 292 291 291 291 291 291 291 291 291 292 292 292 292 293 293 294 294 294 295 295 295 294 294 294 294 293 292 292 290 290 290 290
233 233 233 234 234 233 234 237 240 242 243 244 245 246 248 248 248 249 250 251 252 253 254 255 255 256 256 256 256 257 258 259 261 263 265 269 272 275 277 280 282 284 285 286 288 289 290 291 291 291 291 291 291 290 290 290 290 290 290 289 289 289 290 290 290 290 291 291 292 292 293 293 293 294 293 293 293 293 293 293 292 292 292 292 292 293
236 236 235 236 236 236 236 238 240 242 243 244 245 246 247 248 248 249 249 250 251 251 252 252 253 253 254 254 255 256 258 260 261 264 267 270 273 276 279 281 282 284 285 286 287 288 289 289 290 290 290 290 290 289 289 289 288 288 288 288 288 288 288 288 289 289 289 290 290 291 291 292 292 292 291 291 291 291 291 291 292 292 293 293 294 294
241 240 239 240 240 240 240 240 240 242 243 244 245 246 246 247 247 248 248 249 249 249 249 250 250 251 252 253 255 256 258 261 264 266 269 272 275 277 279 281 282 283 284 285 286 287 288 288 288 288 288 288 288 288 288 288 288 288 287 287 287 287 288 288 288 288 288 289 289 290 290 290 290 290 290 289 289 289 290 290 291 292 292 293 293 294
244 244 243 242 242 242 243 242 242 242 243 244 245 245 245 246 246 247 247 248 248 248 248 248 248 249 251 253 255 257 260 263 266 268 271 273 275 277 279 280 282 283 284 284 285 286 286 286 287 287 287 287 287 287 287 288 287 287 287 287 287 287 287 288 288 288 288 289 289 289 290 290 290 289 289 288 288 288 289 289 290 290 291 291 292 293
245 245 245 244 243 243 245 244 243 242 243 243 244 245 245 245 246 246 247 247 247 247 247 247 248 249 251 253 256 259 261 264 267 269 271 273 275 277 278 280 281 282 283 283 283 284 284 285 285 285 286 286 286 286 287 287 287 287 287 287 287 287 288 288 288 288 288 289 289 289 289 289 289 289 288 288 288 288 288 289 289 290 290 291 291 292
245 245 246 245 244 245 245 244 243 242 242 243 243 244 245 245 245 246 246 246 247 247 248 248 249 250 253 255 258 260 263 266 268 270 272 274 275 276 278 279 280 281 281 281 282 282 283 283 284 284 285 285 285 286 286 286 286 286 286 287 287 287 288 288 288 288 289 289 289 289 289 289 289 289 288 288 288 288 288 288 289 289 290 290 291 291
246 245 245 244 244 244 244 243 243 242 242 242 243 243 244 245 245 245 245 246 247 248 249 251 252 253 255 258 260 262 265 267 269 271 272 274 275 276 277 278 279 279 280 280 280 281 281 282 283 283 284 284 285 285 285 286 286 286 287 287 287 287 288 288 288 288 289 289 289 289 289 289 289 289 288 288 288 288 288 289 289 289 290 290 291 291
245 245 245 244 243 243 243 243 242 242 242 242 242 242 243 244 245 245 245 245 247 248 250 253 255 257 259 260 262 265 266 268 269 271 273 274 275 276 276 277 277 278 278 278 279 280 280 281 282 283 283 284 284 285 285 285 286 286 286 287 287 287 287 288 288 288 289 289 289 289 289 289 288 288 288 288 288 288 289 289 289 290 290 291 291 292
244 244 243 243 243 243 243 243 243 242 242 242 242 242 242 243 244 245 245 246 248 249 251 253 256 259 261 263 264 266 268 269 270 271 272 273 274 275 276 276 277 277 277 277 278 279 279 280 281 282 283 283 284 285 285 285 286 286 286 287 287 287 287 288 288 288 288 289 288 288 288 288 288 288 288 288 288 289 289 289 290 290 291 292 292 293
242 242 242 241 242 242 242 243 243 243 242 242 242 241 240 241 243 245 246 248 249 251 253 255 257 259 262 265 266 267 268 269 270 271 271 272 273 273 274 275 275 275 276 277 277 278 279 280 281 282 282 283 284 284 285 285 285 286 286 286 286 287 287 287 288 288 288 288 288 288 287 287 287 287 287 288 288 289 289 290 290 291 292 293 293 293
241 241 241 241 241 241 241 243 243 243 241 240 240 241 241 241 242 244 247 249 251 253 254 256 258 259 261 264 266 267 268 269 270 270 271 271 271 272 273 273 274 274 275 276 277 277 279 280 281 281 282 283 284 284 284 284 284 285 285 286 286 286 287 287 287 287 287 287 287 287 286 286 286 286 287 287 288 288 289 290 291 292 292 293 293 293
241 241 241 241 241 241 241 242 242 242 239 239 239 241 242 242 243 245 247 250 252 254 256 258 259 260 261 263 265 267 268 268 269 270 271 271 271 271 271 272 272 273 274 275 276 277 278 279 280 281 281 282 283 283 283 284 284 284 285 285 285 286 286 286 286 286 286 286 286 286 286 286 285 286 286 286 287 288 288 290 291 291 292 292 293 293
240 240 241 241 241 241 241 242 242 242 240 240 240 242 243 244 245 245 247 249 251 253 256 258 259 260 262 263 264 266 267 268 269 270 270 271 271 271 271 271 272 273 274 274 275 276 277 278 279 279 280 281 282 282 282 283 283 283 284 284 284 284 284 284 284 285 285 285 285 285 285 285 285 285 285 286 286 287 288 289 290 291 291 292 292 292
240 240 240 241 241 242 242 242 242 243 242 241 242 243 244 246 246 246 248 249 251 253 255 257 259 261 262 262 264 265 266 267 268 269 270 271 271 271 271 271 271 272 273 273 274 275 276 276 277 278 279 280 280 280 281 282 282 282 283 283 283 283 283 283 283 283 284 284 284 284 284 284 283 284 284 285 286 287 288 289 289 290 290 291 291 292
241 241 241 241 242 243 243 243 243 243 243 243 243 243 245 247 248 248 248 250 252 253 255 256 259 261 263 263 263 264 265 266 267 268 270 271 271 271 271 270 270 271 272 272 273 274 275 275 276 277 277 278 279 279 280 280 281 281 281 281 281 281 281 282 282 282 283 283 283 283 283 283 283 283 284 285 286 287 288 288 289 289 290 291 291 291
242 242 242 243 243 243 244 244 244 243 244 244 244 245 246 248 249 249 248 249 252 253 254 255 257 259 262 265 266 264 264 265 266 267 268 269 270 270 270 269 269 269 271 272 272 272 273 274 274 275 276 276 277 278 278 279 279 279 279 280 280 280 280 280 281 281 282 282 282 282 281 282 282 283 284 285 286 286 287 287 288 289 290 290 291 291
242 243 244 244 243 243 243 244 244 244 244 244 245 246 247 249 249 249 249 250 251 254 255 257 258 258 259 265 268 268 266 265 265 266 266 266 268 269 269 268 267 268 269 270 271 272 272 272 273 274 275 276 276 276 277 277 277 278 278 278 278 279 279 280 280 280 281 281 281 281 281 281 282 282 283 284 285 286 286 287 288 289 290 290 290 290
243 244 244 244 243 243 243 244 244 244 244 245 246 247 248 248 249 249 250 251 253 254 256 258 260 261 260 261 266 269 269 267 266 265 265 264 266 268 269 268 267 267 268 269 270 271 272 272 272 273 274 274 275 275 275 276 276 276 277 277 278 278 279 279 279 280 280 280 279 279 280 280 281 282 283 284 285 286 286 287 288 289 289 289 290 290
244 244 244 244 243 243 242 244 244 244 245 245 246 248 249 249 250 250 251 253 255 256 258 259 261 262 262 262 264 268 270 269 266 265 264 263 264 266 269 268 267 266 267 268 269 270 270 271 272 272 273 273 274 274 274 274 275 275 276 276 277 277 278 279 279 279 279 279 278 279 279 280 281 282 283 284 284 285 286 287 288 288 289 289 289 289
244 244 244 244 244 243 243 244 245 244 245 247 248 249 250 251 252 252 253 255 257 258 260 261 262 263 264 264 265 267 269 267 265 264 264 263 263 265 268 269 268 268 268 268 269 269 269 269 270 271 272 272 273 273 273 274 274 274 275 276 276 277 277 278 278 277 277 277 278 279 279 280 281 281 282 283 283 284 285 286 287 288 288 288 289 289
243 244 244 244 243 244 244 244 245 246 246 248 250 251 252 253 254 255 257 258 259 260 262 262 263 263 263 263 264 266 267 266 263 263 264 264 264 265 268 269 270 269 269 269 269 269 268 268 268 269 270 271 272 272 272 273 273 274 274 275 276 276 276 276 276 276 277 277 278 279 280 280 281 281 281 282 283 284 285 286 287 288 288 289 288 289
242 243 244 243 243 243 244 245 245 246 248 250 252 253 255 256 257 258 260 260 261 261 261 261 262 262 262 263 264 265 266 265 264 263 262 262 263 266 268 269 270 270 269 269 269 269 269 268 268 268 270 270 271 271 272 272 272 273 274 275 275 276 275 275 276 276 277 278 278 279 280 281 281 281 282 283 284 285 287 288 288 289 289 289 289 288
242 242 243 243 243 243 243 245 246 248 250 251 253 255 256 257 258 259 259 260 260 260 260 261 261 262 263 263 263 264 265 265 264 263 262 261 261 263 266 268 269 270 270 270 270 270 270 270 270 270 270 270 270 270 271 271 272 274 274 275 275 275 275 275 275 276 277 279 280 280 281 282 282 282 283 285 286 288 289 289 289 289 289 289 288 288
241 241 242 242 242 243 244 245 247 249 251 252 254 255 257 258 258 259 259 259 259 259 260 260 260 260 261 262 262 263 264 265 264 262 261 262 261 261 264 267 268 269 270 270 271 271 271 272 272 272 272 271 270 270 271 272 274 275 276 276 275 275 275 275 276 278 279 280 281 282 282 283 283 285 286 288 289 290 291 290 290 290 289 289 289 288
241 241 241 241 242 243 244 246 248 249 251 252 254 255 257 258 258 258 258 258 258 258 258 258 258 259 261 261 261 261 264 265 264 262 260 261 260 261 264 267 269 269 270 271 271 272 273 274 275 275 275 274 273 273 274 275 276 276 276 276 276 275 276 277 278 280 281 282 282 282 282 283 285 286 288 290 291 292 292 291 291 290 290 290 289 290
241 240 240 240 241 242 243 245 247 248 250 252 254 255 256 257 257 256 256 256 257 257 255 255 255 256 258 258 258 260 262 264 264 262 260 259 259 261 264 267 269 270 271 272 273 274 275 277 278 279 279 279 279 279 278 278 278 278 277 277 277 277 278 279 281 281 281 281 281 281 282 283 286 288 290 291 292 292 292 292 292 292 292 291 291 292
240 240 239 239 240 241 242 244 246 248 250 252 253 254 255 255 255 255 255 256 257 256 254 253 252 252 252 253 255 258 260 262 262 262 260 258 258 260 263 265 268 270 273 275 276 277 279 281 283 283 282 283 283 283 282 281 280 280 279 279 280 280 281 281 281 280 279 279 279 280 282 284 287 289 291 292 293 293 293 293 294 293 293 293 293 294
239 239 239 239 239 240 241 243 245 247 249 251 252 253 254 254 254 254 255 256 255 254 253 253 251 249 248 248 251 255 257 260 261 262 261 260 259 261 263 265 267 271 274 277 280 282 284 286 287 286 285 285 285 284 284 282 281 281 281 281 281 281 280 279 278 277 276 277 278 279 282 285 288 290 292 293 294 294 294 295 295 295 295 295 295 295
239 239 238 239 239 240 241 242 244 246 248 249 251 252 253 253 253 252 252 253 252 251 250 249 248 246 244 243 246 251 255 259 262 263 263 260 260 262 265 266 268 271 274 277 282 285 287 287 286 286 286 286 285 284 284 283 283 283 283 283 281 279 276 275 274 274 274 275 278 280 284 287 290 292 294 295 295 295 296 296 297 296 296 296 296 296
239 239 239 239 240 240 241 242 244 245 247 248 249 250 251 252 250 249 248 248 248 247 245 245 244 243 243 241 240 243 251 256 260 262 263 260 259 263 266 268 270 272 274 274 276 280 284 283 282 283 285 286 286 286 286 288 289 290 290 289 286 282 279 277 276 276 277 279 282 286 289 292 294 296 296 296 296 296 296 296 296 296 296 296 295 296
239 239 240 240 241 243 244 245 246 247 248 248 249 250 251 250 249 247 245 245 244 243 242 242 243 244 245 244 242 240 245 250 256 261 263 260 260 263 266 267 267 270 273 272 270 270 273 275 276 278 282 284 287 289 291 293 296 299 301 301 299 298 297 295 293 292 293 293 294 296 297 298 298 297 297 296 296 295 295 295 295 295 295 295 295 295
239 239 240 241 243 245 247 248 249 249 249 249 250 251 252 252 250 247 245 244 243 242 241 242 244 245 247 249 248 246 245 248 254 259 263 262 262 263 264 264 263 265 269 271 272 271 271 272 274 277 280 283 287 290 293 297 301 304 307 306 305 306 309 310 310 310 310 309 308 306 304 302 300 299 298 297 296 296 295 295 295 294 294 295 295 296
239 239 240 242 244 246 248 249 249 250 249 249 249 250 252 253 252 250 248 248 247 246 244 245 247 248 250 251 252 252 250 252 257 262 265 265 263 262 263 262 261 262 264 268 272 276 276 277 279 282 285 287 288 291 294 297 301 305 308 307 305 305 309 312 313 313 314 314 313 311 309 307 305 303 301 299 299 297 297 296 296 295 295 295 296 297
239 240 240 241 243 245 246 247 248 248 248 248 248 248 250 252 253 253 252 252 252 252 251 250 250 251 252 253 254 254 254 256 261 265 267 267 265 263 263 262 262 263 264 266 270 274 276 278 280 283 286 288 289 289 292 295 299 303 305 306 306 305 308 310 311 311 313 313 312 312 311 310 309 307 305 303 302 301 299 298 297 297 296 296 296 297
240 240 241 242 242 243 244 245 246 246 247 247 247 247 247 249 251 253 254 254 254 255 255 255 254 253 253 253 254 256 257 258 262 266 267 267 265 263 262 262 264 265 266 267 269 271 273 275 278 280 282 284 286 290 293 296 299 301 303 305 307 308 310 312 313 313 312 312 312 312 312 311 310 309 307 306 304 302 301 300 299 297 296 296 296 296
239 240 241 242 242 243 243 243 244 244 245 246 246 246 245 246 248 250 251 253 253 254 254 254 254 253 252 252 253 254 256 257 259 261 263 263 263 262 262 263 265 266 267 267 268 270 272 275 277 279 279 279 281 285 291 295 296 297 298 301 303 306 308 311 313 313 312 312 312 312 312 311 310 309 308 307 305 303 302 300 299 298 297 296 296 296
239 240 242 242 243 243 243 243 243 243 244 244 244 245 245 245 246 247 248 249 250 250 250 250 250 250 250 250 250 251 252 253 254 255 257 259 261 262 262 263 264 266 266 266 268 269 271 272 274 275 275 275 277 280 283 287 288 289 291 294 297 299 302 306 309 311 310 310 311 311 311 311 310 309 308 306 305 303 302 301 300 299 298 298 297 297
239 240 242 242 243 243 243 242 243 243 244 244 244 245 244 244 244 244 244 244 245 245 245 245 245 246 246 247 247 247 248 250 251 253 256 258 260 262 262 262 262 263 265 266 267 267 267 268 268 269 271 273 276 279 282 284 286 288 292 294 295 297 299 303 306 306 307 307 307 308 308 308 308 308 307 305 304 303 302 301 300 300 300 300 299 298
240 241 242 243 244 243 243 242 243 243 244 243 243 242 241 240 239 239 239 239 239 239 239 240 241 242 243 244 245 246 248 250 253 255 257 259 260 261 261 261 261 262 264 265 264 262 261 262 263 266 269 272 276 280 284 286 288 291 294 294 295 297 300 302 303 303 304 304 304 304 305 306 307 306 305 304 303 302 301 301 301 301 301 301 300 300
241 242 243 243 243 243 242 241 241 240 239 238 236 235 234 234 233 233 234 234 234 235 235 236 238 240 242 244 245 247 250 252 254 257 258 258 258 258 258 258 259 261 263 263 261 257 257 260 263 267 271 275 278 281 284 286 288 291 292 292 293 296 299 301 302 303 304 304 304 304 305 306 306 306 305 304 303 302 301 301 301 301 301 301 301 302
242 242 242 242 241 240 239 237 235 233 231 230 229 229 230 230 230 230 230 230 230 231 233 234 235 238 240 242 245 247 250 252 254 256 257 257 256 256 256 257 259 260 261 261 261 261 262 265 268 271 274 277 279 280 282 285 287 289 289 290 293 297 300 301 303 305 305 303 303 303 304 305 306 307 306 305 303 302 301 301 302 302 302 302 302 303
241 239 238 238 238 236 234 230 226 224 224 225 226 227 228 229 229 229 228 229 230 231 233 234 236 238 239 242 244 247 248 251 252 254 256 256 256 256 256 258 259 259 260 260 263 266 269 271 272 273 275 277 278 279 281 284 286 287 288 290 293 295 297 300 303 303 302 300 300 301 303 305 306 306 305 304 303 302 302 302 302 302 303 304 305 305
237 234 233 233 231 229 225 221 220 220 222 222 223 225 226 227 227 226 226 228 230 233 234 236 238 240 242 244 246 249 251 252 252 253 254 255 256 257 258 259 260 261 261 262 264 267 270 272 273 274 275 276 277 278 280 282 285 287 288 290 292 293 293 297 300 301 300 300 301 302 304 305 305 305 305 304 303 303 303 304 304 305 305 306 307 306
231 229 227 226 223 219 217 216 218 220 221 221 221 222 223 224 224 224 225 227 230 234 236 238 240 241 242 244 246 248 252 254 254 253 253 254 256 257 258 259 259 260 261 262 263 265 267 268 270 273 275 275 276 277 278 281 284 287 289 291 293 294 295 297 299 300 300 301 302 304 305 306 306 306 305 305 304 304 304 305 305 306 306 307 307 307
225 223 220 218 215 213 213 215 217 218 219 219 219 220 221 222 223 224 226 228 232 235 239 242 243 242 243 244 245 247 250 254 257 257 255 254 254 255 257 258 258 258 258 259 261 262 263 265 267 269 272 273 275 276 278 280 283 286 289 291 293 294 295 296 297 298 299 301 303 305 306 307 307 306 305 305 305 304 304 304 304 305 306 307 307 308
218 216 213 211 210 210 212 215 216 216 216 217 218 219 220 221 223 226 229 232 235 239 242 245 246 245 245 245 246 247 248 251 257 261 262 261 259 256 255 255 255 255 256 256 258 259 260 262 263 265 267 269 271 273 277 280 282 285 288 290 291 292 293 293 295 297 300 302 304 307 308 309 308 307 306 306 305 304 304 304 305 305 306 308 309 310
211 210 208 208 208 209 211 212 214 214 215 217 218 219 221 223 226 229 232 236 239 242 245 246 247 246 246 246 247 248 249 250 254 260 264 267 267 263 257 254 252 252 253 254 256 257 259 261 262 262 264 266 269 272 276 279 282 284 286 287 288 290 291 292 295 298 301 304 306 308 309 310 309 307 308 307 306 305 305 306 306 306 307 308 309 310
207 206 206 207 207 208 209 210 212 214 215 218 220 222 224 228 231 234 237 240 243 245 246 245 245 245 245 246 246 248 249 251 254 257 261 265 267 266 261 256 253 253 254 256 258 259 261 262 263 263 264 266 270 274 277 280 281 283 283 284 285 287 289 292 296 299 303 305 307 308 309 309 309 308 308 307 306 306 307 307 306 306 307 308 310 311
205 206 206 206 207 208 210 211 213 215 218 221 224 227 229 231 235 238 240 242 244 244 244 243 243 243 244 245 246 247 248 250 252 255 258 261 263 263 261 259 257 257 258 261 263 264 265 267 268 268 269 269 271 274 277 279 281 281 281 281 282 286 290 294 298 302 305 306 307 307 308 309 310 310 309 306 305 305 306 306 305 305 307 309 310 311
206 207 208 209 210 212 214 216 218 220 223 226 229 232 234 237 238 240 242 243 243 243 242 243 243 243 244 244 245 247 248 250 251 254 257 259 261 260 259 259 258 258 259 261 264 266 269 272 275 277 278 277 277 276 277 278 280 281 281 282 284 288 292 296 300 303 305 306 306 306 308 308 309 309 307 304 301 300 302 303 304 305 307 310 311 312